Showing default

KINEIS-5B, 62085

Orbit data source: Space-Track

KINEIS-5B, 62085 is a French payload satellite in SSO that was launched on Mon, 25 Nov 2024 UTC via an ELECTRON launch vehicle from the Rocket Lab Launch Complex (RLLC). Payload-class satellites include a variety of spacecraft equipped with specific instruments for various scientific and technological missions. These include communications satellites like Starlink; space stations such as the ISS; scientific satellites like the Hubble; Earth observation satellites from companies like Planet Labs, Umbra, and HawkEye 360; GPS; miniature CubeSats for education and research; and military/defense satellites.

Loading next visibility...
Identifier
62085, 2024-219E
Orbit
SSO
Country
Flag of FRFR
Related business
Manufacturer
KINEIS
Mission
Operational Commercial Communications
Bus & Motor
CUBESAT 16U, Unknown motor
Mass
28 kg wet, 28 kg dry
Launch date (UTC)
2024-11-25 (10 months ago)
Launch vehicle
ELECTRON
Launch site
Rocket Lab Launch Complex (RLLC)
Object type
Payload
Rocket body
Debris
Shape & HBR
Box + 2 Pan + 1 Ant, 0.8 m
Radar Cross Section
0.229 m², Medium (>0.1 m² and < 1m²)

Expand to show TLE details & history
Last TLE update: 16 hours ago

TLE from 16 hours ago
0 KINEIS-5B
1 62085U 24219E   25257.61300505  .00001158  00000-0  17098-3 0  9993
2 62085  97.9808  58.7095 0003134  85.4303 274.7265 14.77132088 43306
Epoch: 2025-09-14T14:42Z
TLE epoch observation values (Epoch: 2025-09-14T14:42:43.636Z)
Latitude
-0.00002°
Longitude
-155.80182°
Altitude
641.226 km
Speed
7.537 km/s
True Right ascension
03h 54m 50s
True Declination
0° 00' 00"
Sunlit
Object was in daylight at epoch
Visualization orbit readout
Latitude
Unknown
Longitude
Unknown
Altitude
Unknown
Speed
Unknown
Apparent Right ascension
Unknown
Apparent Declination
Unknown
Sunlit
N/A
Visualization observer readout
Local Sidereal Time
23:32:47
Azimuth
Unknown
Elevation
Unknown
Doppler factor
Unknown
Orbital elements
Apogee altitude
637.638 km
Perigee altitude
633.242 km
Semi-major axis
7,013.577 km
Eccentricity
0.00031
Inclination
97.9808°
RAAN
58.7095°
Arg. of periapsis
85.4303°
True anomaly
274.69071°
Mean anomaly
274.7265°
Eccentric anomaly
274.7086°
Mean motion
3.69517 °/min
Orbital period
97.42 mins
BSTAR
0.00017098
Loading maneuver chart data...
Computing Atmospheric mass density...
Loading historical data...
Loading historical data...
Loading historical data...
Loading historical data...
Loading historical data...
Loading historical data...
Loading historical data...

Documentation

Showing up to 5 results
|